Location: Laura�t
(43.9341°N, 0.2497°E)
Time: 00:25:07
(UTC+00:00)

Cosmos 2242 Rocket - Pass Details

Date: 03 March 2021
Orbit: 617 x 652 km, 82.5° (Epoch: 17 April)

Event Time Altitude Azimuth Distance (km) Brightness Sun altitude
Rises 19:06:01 0° 354° (N) 2,958 7.2 -14.4°
Reaches altitude 10° 19:08:19 10° 358° (N) 2,038 6.3 -14.8°
Maximum altitude 19:12:47 63° 79° (E) 709 3.5 -15.7°
Drops below altitude 10° 19:17:12 10° 162° (SSE) 2,000 5.9 -16.4°
Enters shadow 19:19:23 - 165° (SSE) 2,878 6.8 -16.8°
